Mena, AR

2:49 PM CST on December 12, 2017 (GMT -0600)
Mena

Weather History for KMEZ - March, 2013

Change the Weather History Date:

Sunday, March 31, 2013

  Actual Average (KFSM) Record (KFSM)
Temperature  
Mean Temperature 60 °F -  
Max Temperature 69 °F 68 °F 94 °F (1974)
Min Temperature 48 °F 46 °F 24 °F (1987)
Degree Days  
Heating Degree Days 6    
Growing Degree Days 10 (Base 50)    
Moisture  
Dew Point 54 °F    
Average Humidity 76    
Maximum Humidity 100    
Minimum Humidity 43    
Precipitation  
Precipitation 0.11 in - - ()
Sea Level Pressure  
Sea Level Pressure 29.94 in    
Wind  
Wind Speed 2 mph (North)    
Max Wind Speed 12 mph    
Max Gust Speed 16 mph    
Visibility 8 miles    
Events Fog , Rain , Thunderstorm    
Averages and records for this station are not official NWS values.
T = Trace of Precipitation, MM = Missing Value Source: NWS Daily Summary

Daily Weather History Graph

Daily Weather History Graph

Search for Another Location

Airport or City:

Trip Planner

Search our weather history database for the weather conditions in past years. The results will help you decide how hot, cold, wet, or windy it might be!

Date:

Astronomy

Mar. 31, 2013 Rise Set
Actual Time 7:04 AM CDT 7:37 PM CDT
Civil Twilight 6:39 AM CDT 8:02 PM CDT
Nautical Twilight 6:09 AM CDT 8:32 PM CDT
Astronomical Twilight 5:39 AM CDT 9:02 PM CDT
Moon No Moon Rise 10:04 AM CDT (3/31)
Length of Visible Light 13h 23m
Length of Day
12h 32m
Waning Gibbous, 77% of the Moon is Illuminated
Mar 31
Waning Gibbous
Apr 2
Last Quarter
Apr 10
New
Apr 18
First Quarter
Apr 25
Full

Hourly Weather History & Observations

Time (CDT) Temp. Dew Point Humidity Pressure Visibility Wind Dir Wind Speed Gust Speed Precip Events Conditions
12:15 AM 64.4 °F 64.4 °F 100% 29.93 in 7.0 mi South 4.6 mph - N/A   Scattered Clouds
12:35 AM 66.2 °F 66.2 °F 100% 29.93 in 10.0 mi South 8.1 mph - N/A   Scattered Clouds
12:55 AM 66.2 °F 66.2 °F 100% 29.94 in 10.0 mi Calm Calm - N/A   Mostly Cloudy
1:15 AM 64.4 °F 64.4 °F 100% 29.93 in 10.0 mi Calm Calm - N/A   Scattered Clouds
1:35 AM 64.4 °F 64.4 °F 100% 29.94 in 7.0 mi Calm Calm - 0.02 in   Mostly Cloudy
2:15 AM 64.4 °F 64.4 °F 100% 29.91 in 10.0 mi Calm Calm - N/A   Scattered Clouds
2:35 AM 62.6 °F 62.6 °F 100% 29.91 in 7.0 mi Calm Calm - N/A   Clear
2:55 AM 62.6 °F - N/A% 29.89 in 4.0 mi Calm Calm - N/A   Haze
3:15 AM 60.8 °F - N/A% 29.89 in 1.0 mi Calm Calm - N/A   Mist
3:35 AM 57.2 °F - N/A% 29.88 in 0.2 mi Calm Calm - N/A Fog Fog
3:55 AM 57.2 °F - N/A% 29.88 in 0.2 mi Calm Calm - N/A Fog Fog
4:15 AM 53.6 °F - N/A% 29.88 in 0.2 mi Calm Calm - N/A Fog Fog
4:35 AM 53.6 °F - N/A% 29.89 in 0.5 mi Calm Calm - N/A Fog Fog
4:55 AM 59.0 °F - N/A% 29.89 in 1.0 mi Calm Calm - N/A   Mostly Cloudy
5:15 AM 59.0 °F - N/A% 29.90 in 0.8 mi Calm Calm - N/A   Overcast
5:35 AM 57.2 °F - N/A% 29.89 in 2.0 mi Calm Calm - N/A   Overcast
6:15 AM 55.4 °F - N/A% 29.87 in 1.2 mi Calm Calm - N/A   Mist
6:35 AM 55.4 °F - N/A% 29.87 in 2.5 mi Calm Calm - 0.01 in   Scattered Clouds
6:55 AM 57.2 °F - N/A% 29.89 in 7.0 mi Calm Calm - 0.01 in   Mostly Cloudy
7:15 AM 59.0 °F - N/A% 29.89 in 7.0 mi Calm Calm - N/A   Overcast
7:35 AM 59.0 °F 59.0 °F 100% 29.95 in 10.0 mi NW 10.4 mph 16.1 mph N/A Thunderstorm Overcast
7:55 AM 59.0 °F - N/A% 29.98 in 4.0 mi WSW 11.5 mph 16.1 mph N/A Rain , Thunderstorm Heavy Thunderstorms and Rain
8:15 AM 57.2 °F - N/A% 29.98 in 4.0 mi WSW 5.8 mph - N/A Rain , Thunderstorm Heavy Thunderstorms and Rain
8:35 AM 59.0 °F - N/A% 29.98 in 5.0 mi West 8.1 mph - N/A Rain , Thunderstorm Heavy Thunderstorms and Rain
8:55 AM 59.0 °F - N/A% 29.99 in 5.0 mi WNW 4.6 mph - N/A Rain , Thunderstorm Thunderstorms and Rain
9:15 AM 59.0 °F - N/A% 29.98 in 5.0 mi Calm Calm - N/A Rain , Thunderstorm Rain
9:35 AM 59.0 °F - N/A% 29.95 in 7.0 mi Calm Calm - N/A Rain , Thunderstorm Light Thunderstorms and Rain
9:55 AM 59.0 °F - N/A% 29.93 in 10.0 mi Calm Calm - N/A   Overcast
10:15 AM 59.0 °F - N/A% 29.93 in 7.0 mi Calm Calm - N/A Thunderstorm Mostly Cloudy
10:35 AM 59.0 °F - N/A% 29.90 in 5.0 mi NE 4.6 mph - N/A   Haze
10:55 AM 59.0 °F - N/A% 29.96 in 10.0 mi West 5.8 mph - N/A   Clear
11:15 AM 59.0 °F - N/A% 29.95 in 10.0 mi Calm Calm - N/A   Clear
11:35 AM 60.8 °F - N/A% 29.96 in 10.0 mi North 3.5 mph - 0.02 in   Clear
11:55 AM 62.6 °F 62.6 °F 100% 29.98 in 10.0 mi Calm Calm - 0.02 in   Scattered Clouds
12:15 PM 62.6 °F 62.6 °F 100% 29.97 in 10.0 mi Calm Calm - N/A   Scattered Clouds
12:35 PM 62.6 °F 62.6 °F 100% 29.96 in 10.0 mi NNE 3.5 mph - N/A   Scattered Clouds
12:55 PM 64.4 °F 53.6 °F 68% 29.96 in 10.0 mi NNE 10.4 mph - N/A   Scattered Clouds
1:15 PM 64.4 °F 55.4 °F 73% 29.95 in 10.0 mi North 10.4 mph - N/A   Scattered Clouds
1:35 PM 66.2 °F 55.4 °F 68% 29.93 in 10.0 mi ENE 11.5 mph - N/A   Mostly Cloudy
1:55 PM 66.2 °F 51.8 °F 60% 29.94 in 10.0 mi NNE 4.6 mph - N/A   Mostly Cloudy
2:15 PM 68.0 °F 51.8 °F 56% 29.94 in 10.0 mi NE 8.1 mph - 0.01 in   Mostly Cloudy
2:35 PM 68.0 °F 53.6 °F 60% 29.96 in 10.0 mi North 3.5 mph - 0.01 in   Mostly Cloudy
2:55 PM 68.0 °F 51.8 °F 56% 29.95 in 10.0 mi Calm Calm - 0.01 in   Scattered Clouds
3:15 PM 69.8 °F 51.8 °F 53% 29.95 in 10.0 mi Calm Calm - N/A   Clear
3:35 PM 69.8 °F 50.0 °F 49% 29.95 in 10.0 mi Calm Calm - N/A   Clear
3:55 PM 69.8 °F 50.0 °F 49% 29.94 in 10.0 mi NNE 4.6 mph - N/A   Scattered Clouds
4:15 PM 69.8 °F 50.0 °F 49% 29.94 in 10.0 mi NNE 3.5 mph - N/A   Scattered Clouds
4:35 PM 69.8 °F 48.2 °F 46% 29.93 in 10.0 mi NNW 3.5 mph - 0.02 in   Clear
5:15 PM 69.8 °F 46.4 °F 43% 29.92 in 10.0 mi Calm Calm - N/A   Scattered Clouds
5:35 PM 69.8 °F 46.4 °F 43% 29.92 in 10.0 mi Calm Calm - N/A   Clear
6:15 PM 69.8 °F 46.4 °F 43% 29.92 in 10.0 mi North 4.6 mph - N/A   Scattered Clouds
6:35 PM 69.8 °F 46.4 °F 43% 29.92 in 10.0 mi Calm Calm - N/A   Scattered Clouds
6:55 PM 68.0 °F 48.2 °F 49% 29.93 in 10.0 mi NNE 4.6 mph - 0.01 in   Mostly Cloudy
7:15 PM 68.0 °F 48.2 °F 49% 29.93 in 10.0 mi NNE 3.5 mph - N/A   Scattered Clouds
7:35 PM 66.2 °F 48.2 °F 52% 29.93 in 10.0 mi Calm Calm - N/A   Scattered Clouds
7:55 PM 64.4 °F 50.0 °F 59% 29.94 in 10.0 mi Calm Calm - N/A   Clear
8:15 PM 62.6 °F 50.0 °F 63% 29.95 in 10.0 mi Calm Calm - N/A   Clear
8:35 PM 59.0 °F 50.0 °F 72% 29.96 in 10.0 mi Calm Calm - N/A   Clear
8:55 PM 55.4 °F 50.0 °F 82% 29.96 in 10.0 mi Calm Calm - N/A   Clear
9:15 PM 53.6 °F 50.0 °F 88% 29.97 in 10.0 mi Calm Calm - N/A   Clear
9:35 PM 53.6 °F 53.6 °F 100% 29.97 in 10.0 mi Calm Calm - N/A   Clear
9:55 PM 53.6 °F 53.6 °F 100% 29.98 in 10.0 mi Calm Calm - N/A   Clear
10:15 PM 51.8 °F 51.8 °F 100% 29.98 in 10.0 mi Calm Calm - N/A   Clear
10:35 PM 51.8 °F 51.8 °F 100% 29.98 in 10.0 mi Calm Calm - N/A   Clear
10:55 PM 51.8 °F 51.8 °F 100% 29.98 in 10.0 mi Calm Calm - 0.02 in   Clear
11:15 PM 51.8 °F 51.8 °F 100% 29.99 in 10.0 mi Calm Calm - N/A   Clear
11:35 PM 50.0 °F 50.0 °F 100% 29.99 in 10.0 mi Calm Calm - N/A   Clear
11:55 PM 48.2 °F 48.2 °F 100% 29.99 in 10.0 mi Calm Calm - N/A   Clear